THOR ABLESTAR DEB, 3810

Orbit data source: Space-Track

THOR ABLESTAR DEB, 3810 is space debris in LEO originally from a launch on Fri, 13 Aug 1965 UTC launched from the Air Force Western Test Range (AFWTR). Debris objects in space refer to the collection of defunct objects orbiting the Earth. Examples of debris include non-operational satellites, rocket bodies, and fragments generated from explosions, collisions, or faulty payload assembly.

Loading next visibility...
Identifier
3810, 1965-065P
Orbit
LEO
Country
Flag of USUS
Related business
Manufacturer
Unknown
Mission
Spacecraft
Bus & Motor
Unknown
Mass
Unknown
Launch date (UTC)
1965-08-13 (61 years ago)
Launch vehicle
Unknown
Launch site
Air Force Western Test Range (AFWTR)
Object type
Payload
Rocket body
Debris
Shape & HBR
Unknown shape, 0.1 m
Radar Cross Section
Small (<0.1 m²)

Expand to show TLE details & history
Last TLE update: 17 hours ago

TLE from 17 hours ago
0 THOR ABLESTAR DEB
1  3810U 65065P   26140.24680227  .00000354  00000-0  51785-3 0  9999
2  3810  89.9988 216.0497 0059651  12.0388  57.1369 13.52178513255102
Epoch: 2026-05-20T05:55Z
TLE epoch observation values (Epoch: 2026-05-20T05:55:23.716Z)
Latitude
69.82308°
Longitude
-110.70497°
Altitude
1,052.511 km
Speed
7.344 km/s
True Right ascension
14h 24m 12s
True Declination
69° 42' 57"
Sunlit
Object was in daylight at epoch
Visualization orbit readout
Latitude
Unknown
Longitude
Unknown
Altitude
Unknown
Speed
Unknown
Apparent Right ascension
Unknown
Apparent Declination
Unknown
Sunlit
N/A
Visualization observer readout
Local Sidereal Time
07:33:47
Azimuth
Unknown
Elevation
Unknown
Doppler factor
Unknown
Orbital elements
Apogee altitude
1,105.678 km
Perigee altitude
1,016.924 km
Semi-major axis
7,439.438 km
Eccentricity
0.00597
Inclination
89.9988°
RAAN
216.0497°
Arg. of periapsis
12.0388°
True anomaly
57.71338°
Mean anomaly
57.1369°
Eccentric anomaly
57.42491°
Mean motion
3.38246 °/min
Orbital period
106.43 mins
BSTAR
0.00051785
Loading maneuver chart data...
Computing Atmospheric mass density...
Loading historical data...
Loading historical data...
Loading historical data...
Loading historical data...
Loading historical data...
Loading historical data...
Loading historical data...

Documentation

Showing up to 5 results
|